TGW644 WSSS-VTSP

Flight info

Callsign TGW644
Flight time 1h 27m
Altitude 36000
Route AROSO3A AROSO Y513 KALIL Y501 RINBA Y502 DUBAX R325 URGAD URGAD1C
Aircraft A20N/M-SDE2FGHIRWYZ/LB1

Departure

Time 2026-05-04 14:57
Airport Singapore Changi Airport (WSSS)

Arrival

Time 2026-05-04 16:24
Airport Phuket International Airport (VTSP)
Time Latitude Longitude Altitude Speed Heading
2026-05-04 14:18 1.36662 103.99038 30 ft 0 kts 275°
2026-05-04 14:41 1.36660 103.99054 30 ft 4 kts 277°
2026-05-04 14:41 1.36653 103.99104 30 ft 4 kts 292°
2026-05-04 14:42 1.36623 103.99125 30 ft 1 kts 353°
2026-05-04 14:42 1.36622 103.99125 30 ft 0 kts 353°
2026-05-04 14:45 1.36623 103.99125 30 ft 2 kts 353°
2026-05-04 14:45 1.36665 103.99135 30 ft 9 kts 44°
2026-05-04 14:46 1.36666 103.99203 30 ft 12 kts 111°
2026-05-04 14:46 1.36628 103.99288 30 ft 15 kts 114°
2026-05-04 14:46 1.36586 103.99391 30 ft 17 kts 113°
2026-05-04 14:46 1.36536 103.99507 30 ft 19 kts 113°
2026-05-04 14:47 1.36491 103.99610 30 ft 9 kts 113°
2026-05-04 14:47 1.36463 103.99675 30 ft 12 kts 114°
2026-05-04 14:47 1.36425 103.99757 30 ft 14 kts 124°
2026-05-04 14:47 1.36334 103.99760 30 ft 15 kts 206°
2026-05-04 14:48 1.36227 103.99713 30 ft 18 kts 202°
2026-05-04 14:48 1.36112 103.99665 30 ft 17 kts 203°
2026-05-04 14:48 1.35995 103.99615 30 ft 19 kts 203°
2026-05-04 14:48 1.35873 103.99564 30 ft 18 kts 202°
2026-05-04 14:49 1.35749 103.99511 30 ft 20 kts 202°
2026-05-04 14:49 1.35611 103.99453 30 ft 22 kts 202°
2026-05-04 14:49 1.35488 103.99401 30 ft 18 kts 202°
2026-05-04 14:49 1.35364 103.99349 30 ft 21 kts 203°
2026-05-04 14:50 1.35226 103.99291 30 ft 23 kts 202°
2026-05-04 14:50 1.35075 103.99228 30 ft 19 kts 204°
2026-05-04 14:50 1.34972 103.99184 30 ft 17 kts 203°
2026-05-04 14:50 1.34854 103.99133 30 ft 20 kts 203°
2026-05-04 14:51 1.34764 103.99096 30 ft 21 kts 203°
2026-05-04 14:51 1.34622 103.99037 30 ft 23 kts 202°
2026-05-04 14:51 1.34471 103.98974 30 ft 22 kts 202°
2026-05-04 14:51 1.34334 103.98916 30 ft 18 kts 203°
2026-05-04 14:52 1.34214 103.98865 30 ft 20 kts 203°
2026-05-04 14:52 1.34078 103.98808 30 ft 22 kts 202°
2026-05-04 14:52 1.33928 103.98745 30 ft 22 kts 202°
2026-05-04 14:52 1.33814 103.98699 30 ft 19 kts 204°
2026-05-04 14:53 1.33687 103.98642 30 ft 21 kts 203°
2026-05-04 14:53 1.33544 103.98582 30 ft 23 kts 203°
2026-05-04 14:53 1.33394 103.98520 30 ft 22 kts 202°
2026-05-04 14:53 1.33249 103.98459 30 ft 24 kts 203°
2026-05-04 14:54 1.33117 103.98403 30 ft 20 kts 202°
2026-05-04 14:54 1.33018 103.98361 30 ft 12 kts 202°
2026-05-04 14:54 1.32968 103.98350 30 ft 5 kts 171°
2026-05-04 14:54 1.32939 103.98383 30 ft 8 kts 107°
2026-05-04 14:55 1.32937 103.98388 30 ft 0 kts 111°
2026-05-04 14:55 1.32937 103.98389 30 ft 0 kts 111°
2026-05-04 14:55 1.32925 103.98416 30 ft 9 kts 113°
2026-05-04 14:55 1.32908 103.98490 30 ft 13 kts 76°
2026-05-04 14:56 1.32961 103.98532 30 ft 0 kts 23°
2026-05-04 14:56 1.33163 103.98619 30 ft 69 kts 23°
2026-05-04 14:56 1.33797 103.98885 30 ft 129 kts 22°
2026-05-04 14:57 1.34777 103.99299 34 ft 175 kts 23°
2026-05-04 14:57 1.35903 103.99793 618 ft 176 kts 24°
2026-05-04 14:57 1.37037 104.00277 1221 ft 179 kts 23°
2026-05-04 14:57 1.38200 104.00755 1878 ft 182 kts 22°
2026-05-04 14:58 1.39420 104.01243 2335 ft 199 kts 22°
2026-05-04 14:58 1.40795 104.01795 2692 ft 226 kts 22°
2026-05-04 14:58 1.42320 104.02444 3169 ft 250 kts 23°
2026-05-04 14:58 1.43974 104.03166 3732 ft 268 kts 24°
2026-05-04 14:59 1.45699 104.03917 4611 ft 272 kts 23°
2026-05-04 14:59 1.47453 104.04670 5492 ft 276 kts 21°
2026-05-04 14:59 1.51202 104.04483 7150 ft 282 kts 333°
2026-05-04 15:00 1.52942 104.03551 7961 ft 286 kts 330°
2026-05-04 15:00 1.54684 104.02571 8762 ft 289 kts 330°
2026-05-04 15:00 1.56451 104.01579 9573 ft 294 kts 331°
2026-05-04 15:01 1.60156 103.99545 10561 ft 323 kts 332°
2026-05-04 15:01 1.62203 103.98437 10783 ft 345 kts 332°
2026-05-04 15:01 1.64337 103.97286 11361 ft 352 kts 332°
2026-05-04 15:01 1.66505 103.96116 12079 ft 355 kts 332°
2026-05-04 15:02 1.68695 103.94934 12768 ft 360 kts 332°
2026-05-04 15:02 1.70912 103.93738 13471 ft 364 kts 332°
2026-05-04 15:02 1.73122 103.92536 14434 ft 357 kts 330°
2026-05-04 15:02 1.75121 103.91162 15751 ft 341 kts 322°
2026-05-04 15:03 1.76810 103.89572 17063 ft 327 kts 313°
2026-05-04 15:03 1.78206 103.87841 18295 ft 314 kts 308°
2026-05-04 15:03 1.79548 103.86080 18750 ft 328 kts 309°
2026-05-04 15:03 1.80988 103.84220 18919 ft 348 kts 309°
2026-05-04 15:04 1.82519 103.82247 19092 ft 369 kts 309°
2026-05-04 15:04 1.84124 103.80175 19247 ft 385 kts 309°
2026-05-04 15:04 1.85784 103.78029 19382 ft 399 kts 309°
2026-05-04 15:04 1.87503 103.75803 19553 ft 412 kts 309°
2026-05-04 15:05 1.89260 103.73526 19991 ft 415 kts 309°
2026-05-04 15:05 1.91032 103.71229 20484 ft 418 kts 309°
2026-05-04 15:05 1.92808 103.68920 20950 ft 421 kts 309°
2026-05-04 15:05 1.94597 103.66593 21414 ft 424 kts 309°
2026-05-04 15:06 1.96400 103.64249 21858 ft 427 kts 309°
2026-05-04 15:06 1.98218 103.61885 22331 ft 430 kts 309°
2026-05-04 15:06 2.00048 103.59508 22779 ft 433 kts 309°
2026-05-04 15:07 2.03742 103.54708 23626 ft 438 kts 309°
2026-05-04 15:07 2.05608 103.52283 23981 ft 441 kts 308°
2026-05-04 15:07 2.07483 103.49847 24357 ft 443 kts 308°
2026-05-04 15:07 2.09364 103.47402 24733 ft 445 kts 308°
2026-05-04 15:08 2.11254 103.44945 25052 ft 448 kts 308°
2026-05-04 15:08 2.13069 103.42387 25378 ft 451 kts 302°
2026-05-04 15:08 2.14566 103.39641 25840 ft 451 kts 295°
2026-05-04 15:08 2.15737 103.36725 26164 ft 454 kts 288°
2026-05-04 15:09 2.16631 103.33692 26478 ft 456 kts 286°
2026-05-04 15:09 2.17520 103.30635 26807 ft 458 kts 287°
2026-05-04 15:09 2.18417 103.27572 27138 ft 460 kts 287°
2026-05-04 15:10 2.20224 103.21411 27750 ft 464 kts 287°
2026-05-04 15:10 2.21123 103.18346 28042 ft 466 kts 287°
2026-05-04 15:10 2.22954 103.12095 28634 ft 470 kts 287°
2026-05-04 15:11 2.23875 103.08949 28910 ft 472 kts 287°
2026-05-04 15:11 2.24799 103.05794 29181 ft 474 kts 286°
2026-05-04 15:11 2.25725 103.02631 29453 ft 476 kts 286°
2026-05-04 15:11 2.26656 102.99447 29718 ft 478 kts 286°
2026-05-04 15:12 2.27593 102.96247 29990 ft 479 kts 286°
2026-05-04 15:12 2.28530 102.93044 30219 ft 481 kts 286°
2026-05-04 15:12 2.29473 102.89824 30450 ft 483 kts 287°
2026-05-04 15:12 2.30417 102.86595 30701 ft 485 kts 287°
2026-05-04 15:13 2.31366 102.83358 30920 ft 486 kts 287°
2026-05-04 15:13 2.32322 102.80110 31218 ft 487 kts 287°
2026-05-04 15:13 2.33275 102.76865 31546 ft 486 kts 287°
2026-05-04 15:13 2.34223 102.73624 31874 ft 485 kts 287°
2026-05-04 15:14 2.35167 102.70391 32204 ft 484 kts 287°
2026-05-04 15:14 2.36108 102.67166 32523 ft 483 kts 287°
2026-05-04 15:14 2.37050 102.63942 32838 ft 482 kts 287°
2026-05-04 15:14 2.37989 102.60725 33156 ft 481 kts 287°
2026-05-04 15:15 2.38925 102.57523 33472 ft 480 kts 287°
2026-05-04 15:15 2.39862 102.54313 33757 ft 479 kts 287°
2026-05-04 15:15 2.40794 102.51121 34028 ft 478 kts 287°
2026-05-04 15:16 2.42655 102.44750 34537 ft 476 kts 287°
2026-05-04 15:16 2.43582 102.41576 34772 ft 475 kts 287°
2026-05-04 15:16 2.45790 102.35376 35228 ft 472 kts 299°
2026-05-04 15:17 2.47550 102.32619 35454 ft 469 kts 309°
2026-05-04 15:17 2.52243 102.28167 35868 ft 465 kts 323°
2026-05-04 15:17 2.54790 102.26179 35905 ft 464 kts 323°
2026-05-04 15:18 2.59835 102.22222 35905 ft 464 kts 323°
2026-05-04 15:19 2.67458 102.16236 35898 ft 469 kts 323°
2026-05-04 15:19 2.75276 102.10100 35892 ft 482 kts 323°
2026-05-04 15:20 2.80587 102.05930 35889 ft 488 kts 323°
2026-05-04 15:20 2.85932 102.01734 35883 ft 488 kts 323°
2026-05-04 15:21 2.91268 101.97543 35882 ft 488 kts 323°
2026-05-04 15:22 2.99285 101.91246 35887 ft 488 kts 323°
2026-05-04 15:22 3.07296 101.84953 35902 ft 488 kts 323°
2026-05-04 15:23 3.12633 101.80760 35908 ft 488 kts 323°
2026-05-04 15:23 3.17978 101.76560 35912 ft 488 kts 323°
2026-05-04 15:24 3.28625 101.68193 35914 ft 488 kts 323°
2026-05-04 15:25 3.34203 101.64353 35916 ft 486 kts 333°
2026-05-04 15:26 3.43388 101.60130 35916 ft 484 kts 338°
2026-05-04 15:26 3.52613 101.56021 35918 ft 483 kts 338°
2026-05-04 15:27 3.61825 101.51922 35914 ft 483 kts 338°
2026-05-04 15:28 3.71037 101.47823 35913 ft 483 kts 338°
2026-05-04 15:29 3.80238 101.43728 35913 ft 483 kts 338°
2026-05-04 15:30 4.01745 101.34162 35916 ft 483 kts 338°
2026-05-04 15:31 4.10915 101.30081 35915 ft 483 kts 338°
2026-05-04 15:32 4.26288 101.23240 35918 ft 483 kts 337°
2026-05-04 15:34 4.41645 101.16401 35932 ft 483 kts 337°
2026-05-04 15:34 4.50859 101.12297 35938 ft 483 kts 337°
2026-05-04 15:35 4.60081 101.08203 35939 ft 483 kts 338°
2026-05-04 15:36 4.69341 101.04231 35932 ft 482 kts 338°
2026-05-04 15:36 4.75511 101.01577 35923 ft 482 kts 338°
2026-05-04 15:37 4.80630 100.99371 35915 ft 482 kts 338°
2026-05-04 15:37 4.86791 100.96714 35905 ft 482 kts 338°
2026-05-04 15:38 4.92947 100.94058 35900 ft 481 kts 338°
2026-05-04 15:38 4.99100 100.91404 35897 ft 481 kts 338°
2026-05-04 15:39 5.05250 100.88747 35896 ft 481 kts 338°
2026-05-04 15:40 5.14476 100.84760 35891 ft 481 kts 337°
2026-05-04 15:40 5.20596 100.82114 35893 ft 481 kts 337°
2026-05-04 15:41 5.26751 100.79453 35894 ft 481 kts 337°
2026-05-04 15:41 5.32912 100.76789 35896 ft 481 kts 337°
2026-05-04 15:42 5.38931 100.73952 35894 ft 481 kts 331°
2026-05-04 15:42 5.44775 100.70631 35898 ft 481 kts 331°
2026-05-04 15:43 5.50577 100.67354 35900 ft 481 kts 331°
2026-05-04 15:43 5.56419 100.64054 35900 ft 481 kts 331°
2026-05-04 15:44 5.62221 100.60773 35901 ft 481 kts 331°
2026-05-04 15:44 5.68069 100.57465 35898 ft 480 kts 331°
2026-05-04 15:45 5.73867 100.54185 35892 ft 481 kts 331°
2026-05-04 15:45 5.79698 100.50880 35898 ft 481 kts 330°
2026-05-04 15:46 5.85454 100.47431 35896 ft 481 kts 329°
2026-05-04 15:46 5.91161 100.43974 35901 ft 481 kts 329°
2026-05-04 15:47 5.96927 100.40505 35905 ft 482 kts 329°
2026-05-04 15:47 6.02657 100.37064 35910 ft 482 kts 329°
2026-05-04 15:48 6.08434 100.33596 35912 ft 482 kts 329°
2026-05-04 15:48 6.17048 100.28422 35912 ft 482 kts 329°
2026-05-04 15:49 6.22829 100.24948 35914 ft 482 kts 329°
2026-05-04 15:49 6.28564 100.21501 35914 ft 482 kts 329°
2026-05-04 15:50 6.34341 100.18028 35911 ft 482 kts 329°
2026-05-04 15:50 6.40057 100.14558 35908 ft 482 kts 327°
2026-05-04 15:51 6.45279 100.10336 35906 ft 482 kts 316°
2026-05-04 15:51 6.49843 100.05369 35903 ft 482 kts 313°
2026-05-04 15:52 6.54350 100.00400 35903 ft 482 kts 313°
2026-05-04 15:52 6.58879 99.95407 35903 ft 482 kts 313°
2026-05-04 15:53 6.63371 99.90446 35905 ft 482 kts 313°
2026-05-04 15:53 6.67894 99.85449 35905 ft 482 kts 313°
2026-05-04 15:54 6.72397 99.80473 35903 ft 483 kts 313°
2026-05-04 15:54 6.76930 99.75463 35903 ft 484 kts 313°
2026-05-04 15:55 6.81467 99.70446 35904 ft 484 kts 313°
2026-05-04 15:55 6.85993 99.65440 35903 ft 485 kts 313°
2026-05-04 15:56 6.90547 99.60401 35902 ft 485 kts 313°
2026-05-04 15:56 6.95076 99.55389 35901 ft 486 kts 313°
2026-05-04 15:57 6.99598 99.50383 35735 ft 477 kts 313°
2026-05-04 15:57 7.01814 99.47947 35494 ft 465 kts 313°
2026-05-04 15:57 7.04009 99.45604 35261 ft 456 kts 314°
2026-05-04 15:58 7.06198 99.43290 35032 ft 459 kts 314°
2026-05-04 15:58 7.08424 99.40935 34780 ft 467 kts 314°
2026-05-04 15:58 7.10649 99.38574 34273 ft 473 kts 314°
2026-05-04 15:58 7.12919 99.36158 33492 ft 477 kts 314°
2026-05-04 15:59 7.15219 99.33705 32512 ft 483 kts 314°
2026-05-04 15:59 7.17535 99.31234 31553 ft 486 kts 314°
2026-05-04 15:59 7.19853 99.28758 30599 ft 484 kts 314°
2026-05-04 15:59 7.22170 99.26284 29225 ft 486 kts 314°
2026-05-04 16:00 7.24499 99.23799 28169 ft 489 kts 314°
2026-05-04 16:00 7.26828 99.21314 27463 ft 484 kts 314°
2026-05-04 16:00 7.29124 99.18863 26803 ft 479 kts 314°
2026-05-04 16:00 7.31364 99.16470 26180 ft 471 kts 314°
2026-05-04 16:01 7.33598 99.14085 25354 ft 465 kts 314°
2026-05-04 16:01 7.35806 99.11726 24428 ft 460 kts 314°
2026-05-04 16:01 7.37994 99.09389 23567 ft 455 kts 314°
2026-05-04 16:01 7.40155 99.07080 22746 ft 446 kts 314°
2026-05-04 16:02 7.42267 99.04823 21982 ft 436 kts 314°
2026-05-04 16:02 7.44333 99.02616 21217 ft 428 kts 314°
2026-05-04 16:02 7.48353 98.98319 19692 ft 423 kts 314°
2026-05-04 16:03 7.50371 98.96163 18973 ft 423 kts 314°
2026-05-04 16:03 7.52395 98.93999 18357 ft 421 kts 314°
2026-05-04 16:03 7.54393 98.91863 17672 ft 415 kts 314°
2026-05-04 16:03 7.56362 98.89756 16743 ft 410 kts 314°
2026-05-04 16:04 7.58290 98.87693 15924 ft 404 kts 314°
2026-05-04 16:04 7.62077 98.83640 14454 ft 391 kts 314°
2026-05-04 16:04 7.63941 98.81646 13773 ft 392 kts 314°
2026-05-04 16:05 7.65810 98.79647 13117 ft 390 kts 314°
2026-05-04 16:05 7.67642 98.77686 12444 ft 386 kts 314°
2026-05-04 16:05 7.71291 98.73779 11084 ft 378 kts 314°
2026-05-04 16:06 7.73090 98.71848 10453 ft 374 kts 314°
2026-05-04 16:06 7.77036 98.66697 9940 ft 328 kts 291°
2026-05-04 16:07 7.77727 98.63799 9476 ft 312 kts 279°
2026-05-04 16:07 7.78746 98.57465 9008 ft 306 kts 279°
2026-05-04 16:08 7.79094 98.55353 8919 ft 305 kts 279°
2026-05-04 16:08 7.80139 98.49061 8482 ft 302 kts 282°
2026-05-04 16:09 7.81655 98.45144 8135 ft 300 kts 299°
2026-05-04 16:09 7.83606 98.41429 7790 ft 299 kts 298°
2026-05-04 16:10 7.85532 98.37721 7449 ft 297 kts 298°
2026-05-04 16:11 7.88381 98.32233 6938 ft 293 kts 298°
2026-05-04 16:11 7.89332 98.30403 6765 ft 294 kts 298°
2026-05-04 16:12 7.92161 98.24959 6253 ft 292 kts 298°
2026-05-04 16:12 7.94971 98.19548 5748 ft 289 kts 298°
2026-05-04 16:13 7.96831 98.15965 5413 ft 287 kts 298°
2026-05-04 16:13 7.98652 98.12421 5083 ft 284 kts 294°
2026-05-04 16:14 7.99057 98.08499 4756 ft 284 kts 263°
2026-05-04 16:14 7.98997 98.04604 4476 ft 273 kts 289°
2026-05-04 16:15 8.03183 98.01898 4055 ft 252 kts
2026-05-04 16:16 8.06459 98.02049 4048 ft 221 kts 17°
2026-05-04 16:16 8.08820 98.05219 3569 ft 190 kts 86°
2026-05-04 16:17 8.09048 98.07674 3384 ft 162 kts 85°
2026-05-04 16:18 8.09365 98.10814 3067 ft 142 kts 85°
2026-05-04 16:18 8.09460 98.11817 3036 ft 143 kts 85°
2026-05-04 16:19 8.09749 98.14937 2255 ft 153 kts 85°
2026-05-04 16:19 8.09935 98.16926 1882 ft 132 kts 85°
2026-05-04 16:20 8.10189 98.19651 1385 ft 133 kts 85°
2026-05-04 16:20 8.10362 98.21505 1356 ft 132 kts 85°
2026-05-04 16:21 8.10618 98.24214 1059 ft 131 kts 84°
2026-05-04 16:22 8.10764 98.25729 956 ft 130 kts 84°
2026-05-04 16:22 8.11013 98.28446 474 ft 129 kts 84°
2026-05-04 16:23 8.11262 98.31079 30 ft 113 kts 83°
2026-05-04 16:24 8.11358 98.32324 68 ft 15 kts 105°
2026-05-04 16:25 8.11274 98.32427 69 ft 10 kts 208°
2026-05-04 16:26 8.11206 98.31916 52 ft 25 kts 262°
2026-05-04 16:26 8.11167 98.31495 37 ft 19 kts 262°
2026-05-04 16:27 8.11141 98.31208 30 ft 19 kts 264°
2026-05-04 16:28 8.11078 98.30834 28 ft 10 kts 266°
2026-05-04 16:28 8.11051 98.30534 27 ft 11 kts 265°
2026-05-04 16:29 8.10904 98.30552 27 ft 1 kts 104°